DW4557 Weather Reports


Display with metric or nautical units.
time (UTC)temp
F
wind
direction
speed
MPH
gust
MPH
rain 1hr
in
rain 24hr
in
rain mn
in
humidity
%
barometer
mb
20260507195502 52 20 2.0 12.0 0.00 1.10 1.10 91 1009.1
20260507195002 52 38 2.0 12.0 0.00 1.10 1.10 91 1009.0
20260507194502 52 27 4.0 14.0 0.00 1.10 1.10 91 1009.0
20260507194002 52 30 3.0 14.0 0.00 1.10 1.10 92 1009.0
20260507193502 52 55 6.0 13.0 0.00 1.10 1.10 92 1009.1
20260507193002 52 67 3.0 14.0 0.00 1.10 1.10 93 1009.3
20260507192502 52 57 5.0 14.0 0.00 1.10 1.10 94 1009.3
20260507192002 52 51 4.0 13.0 0.01 1.10 1.10 94 1009.5
20260507191502 52 46 6.0 11.0 0.01 1.10 1.10 94 1009.4
20260507191002 52 67 3.0 15.0 0.01 1.10 1.10 95 1009.5
20260507190502 52 23 13.0 15.0 0.02 1.10 1.10 95 1010.0
20260507190006 52 51 6.0 12.0 0.02 1.10 1.10 95 1010.0
20260507185502 52 26 3.0 10.0 0.03 1.10 1.10 95 1009.9
20260507185002 52 13 2.0 10.0 0.03 1.10 1.10 95 1010.2
20260507184502 52 27 10.0 11.0 0.05 1.10 1.10 95 1010.1
20260507184002 52 12 8.0 11.0 0.06 1.10 1.10 95 1010.2
20260507183502 52 24 3.0 10.0 0.06 1.10 1.10 95 1010.2
20260507183002 52 350 3.0 12.0 0.07 1.10 1.10 95 1010.1
20260507182502 53 74 9.0 14.0 0.08 1.10 1.10 95 1009.7
20260507182002 52 69 2.0 14.0 0.07 1.09 1.09 95 1009.4
20260507181502 52 51 7.0 14.0 0.08 1.09 1.09 95 1009.6
20260507181002 52 33 2.0 15.0 0.08 1.09 1.09 95 1009.8
20260507180500 52 74 7.0 10.0 0.08 1.08 1.08 95 1009.8
20260507180002 52 72 2.0 10.0 0.09 1.08 1.08 95 1010.2
20260507175502 52 34 5.0 8.0 0.08 1.07 1.07 95 1010.5
20260507175002 52 360 5.0 9.0 0.08 1.07 1.07 95 1010.7
20260507174502 52 44 3.0 11.0 0.07 1.05 1.05 95 1011.0
20260507174002 52 27 3.0 11.0 0.06 1.04 1.04 95 1010.7
20260507173502 53 14 4.0 10.0 0.07 1.04 1.04 95 1011.0
20260507173002 53 40 7.0 11.0 0.06 1.03 1.03 95 1011.1
20260507172502 53 43 6.0 11.0 0.07 1.02 1.02 95 1011.1
20260507172002 53 27 5.0 9.0 0.08 1.02 1.02 95 1011.3
20260507171502 53 48 4.0 12.0 0.09 1.01 1.01 95 1011.5
20260507171002 52 38 9.0 13.0 0.11 1.01 1.01 95 1011.3
20260507170502 53 24 3.0 13.0 0.12 1.00 1.00 95 1011.1
20260507170002 52 86 5.0 11.0 0.16 0.99 0.99 95 1011.0
20260507165502 52 31 8.0 11.0 0.21 0.99 0.99 95 1011.1
20260507165000 52 37 7.0 12.0 0.24 0.99 0.99 95 1011.1
20260507164502 53 34 4.0 12.0 0.28 0.98 0.98 95 1011.1
20260507164002 52 33 1.0 12.0 0.31 0.98 0.98 95 1011.2
20260507163502 52 44 5.0 12.0 0.33 0.97 0.97 95 1011.2
20260507163002 52 67 5.0 15.0 0.36 0.97 0.97 95 1011.2
20260507162502 52 355 4.0 15.0 0.38 0.95 0.95 95 1010.9
20260507162002 52 16 12.0 13.0 0.40 0.94 0.94 95 1011.1
20260507161502 52 34 10.0 14.0 0.39 0.92 0.92 95 1011.0
20260507161002 52 14 4.0 17.0 0.39 0.90 0.90 95 1011.0
20260507160502 52 11 10.0 18.0 0.38 0.87 0.87 95 1011.0
20260507160005 52 54 9.0 18.0 0.38 0.83 0.83 95 1010.4
20260507155502 52 88 7.0 13.0 0.36 0.78 0.78 95 1010.9
20260507155009 52 58 7.0 13.0 0.34 0.75 0.75 95 1011.0
20260507154502 52 35 5.0 14.0 0.29 0.70 0.70 95 1011.3
20260507154002 52 49 12.0 16.0 0.26 0.67 0.67 95 1011.3
20260507153502 52 46 7.0 19.0 0.24 0.64 0.64 95 1011.3
20260507153003 53 57 9.0 19.0 0.21 0.61 0.61 95 1011.3
20260507152503 54 34 5.0 17.0 0.17 0.57 0.57 95 1011.5
20260507152002 54 55 7.0 17.0 0.15 0.54 0.54 95 1011.5
20260507151502 54 22 6.0 17.0 0.14 0.53 0.53 96 1011.3
20260507151002 54 28 9.0 17.0 0.12 0.51 0.51 95 1011.2
20260507150502 55 53 5.0 13.0 0.10 0.49 0.49 96 1011.1
20260507150006 55 34 6.0 11.0 0.06 0.45 0.45 96 1011.4
20260507145502 55 42 3.0 14.0 0.04 0.42 0.42 96 1011.4
20260507145002 55 77 11.0 17.0 0.04 0.41 0.41 96 1011.1
20260507144502 55 27 12.0 18.0 0.04 0.41 0.41 95 1011.2
20260507144002 56 31 9.0 15.0 0.04 0.41 0.41 96 1011.1
20260507143502 56 45 7.0 17.0 0.03 0.40 0.40 96 1011.0
20260507143002 56 24 14.0 18.0 0.04 0.40 0.40 96 1011.0
20260507142502 57 61 11.0 18.0 0.04 0.40 0.40 96 1010.9
20260507142002 57 28 3.0 15.0 0.04 0.39 0.39 96 1010.7
20260507141502 57 57 13.0 18.0 0.05 0.39 0.39 96 1010.7
20260507141002 57 39 7.0 19.0 0.07 0.39 0.39 96 1010.6
20260507140500 57 32 9.0 19.0 0.09 0.39 0.39 96 1010.7
20260507140006 58 71 4.0 19.0 0.09 0.39 0.39 96 1010.6
20260507135502 58 5 6.0 19.0 0.08 0.38 0.38 96 1010.6
20260507135002 58 42 10.0 19.0 0.07 0.37 0.37 96 1010.5
20260507134502 59 29 10.0 13.0 0.07 0.37 0.37 96 1010.6
20260507134002 59 43 9.0 13.0 0.07 0.37 0.37 96 1010.6
20260507133502 59 41 3.0 13.0 0.08 0.37 0.37 96 1010.4
20260507133002 59 10 5.0 14.0 0.08 0.36 0.36 96 1010.4
20260507132502 59 13 5.0 17.0 0.09 0.36 0.36 96 1010.6
20260507132003 59 55 3.0 17.0 0.09 0.35 0.35 96 1010.5
20260507131502 60 24 5.0 9.0 0.10 0.34 0.34 96 1010.4
20260507131002 60 23 3.0 8.0 0.10 0.32 0.32 96 1010.5
20260507130502 60 334 3.0 6.0 0.09 0.30 0.30 96 1010.9
20260507130002 60 24 1.0 9.0 0.10 0.30 0.30 96 1010.9
20260507125500 60 273 2.0 9.0 0.11 0.30 0.30 96 1010.9
20260507125002 60 30 2.0 9.0 0.12 0.30 0.30 96 1010.5
20260507124500 60 10 4.0 12.0 0.14 0.30 0.30 96 1010.6
20260507124002 60 92 4.0 8.0 0.14 0.30 0.30 96 1010.7
20260507123502 60 9 4.0 11.0 0.14 0.29 0.29 96 1010.6
20260507123002 60 360 5.0 11.0 0.16 0.28 0.28 96 1010.6
20260507122502 60 36 6.0 10.0 0.17 0.27 0.27 96 1010.9
20260507122002 60 11 2.0 10.0 0.18 0.26 0.26 95 1010.7
20260507121502 61 26 4.0 11.0 0.17 0.24 0.24 95 1010.6
20260507121007 61 28 2.0 11.0 0.16 0.22 0.22 95 1010.6
20260507120502 61 19 4.0 14.0 0.15 0.21 0.21 95 1010.4
20260507120006 62 17 12.0 14.0 0.15 0.20 0.20 95 1010.3
20260507115502 64 360 5.0 14.0 0.14 0.19 0.19 94 1010.4
20260507115002 65 276 0.0 5.0 0.13 0.18 0.18 96 1010.2
20260507114502 65 227 1.0 5.0 0.12 0.16 0.16 95 1010.2
20260507114002 65 242 1.0 5.0 0.12 0.16 0.16 95 1010.1
20260507113502 65 261 1.0 6.0 0.12 0.15 0.15 95 1009.9
20260507113002 65 295 2.0 6.0 0.11 0.12 0.12 95 1009.9
20260507112500 66 268 4.0 6.0 0.09 0.10 0.10 95 1010.1
20260507112002 66 290 2.0 5.0 0.07 0.08 0.08 95 1010.1
20260507111503 66 251 0.0 3.0 0.06 0.07 0.07 95 1010.2
20260507111002 66 333 1.0 3.0 0.05 0.06 0.06 95 1010.0
20260507110502 66 322 1.0 3.0 0.06 0.06 0.06 94 1010.1
20260507110003 66 221 1.0 3.0 0.05 0.05 0.05 94 1010.1
20260507105502 66 94 1.0 2.0 0.05 0.05 0.05 94 1010.1
20260507105002 66 193 0.0 4.0 0.05 0.05 0.05 94 1010.0
20260507104502 66 292 0.0 4.0 0.04 0.04 0.04 93 1009.9
20260507104003 66 343 0.0 3.0 0.04 0.04 0.04 93 1009.9
20260507103501 66 292 1.0 3.0 0.03 0.03 0.03 92 1009.9
20260507103002 66 293 1.0 7.0 0.01 0.01 0.01 91 1009.9
20260507102500 67 294 2.0 7.0 0.01 0.01 0.01 91 1009.6
20260507102002 67 221 0.0 7.0 0.01 0.01 0.01 90 1009.4
20260507101501 67 224 5.0 10.0 0.01 0.01 0.01 89 1009.3
20260507101002 68 211 3.0 10.0 0.01 0.01 0.01 88 1009.1
20260507100500 68 233 3.0 10.0 0.00 0.00 0.00 88 1009.1
20260507100000 68 211 2.0 10.0 0.00 0.00 0.00 87 1009.1
20260507095500 68 213 4.0 10.0 0.00 0.00 0.00 87 1009.1
20260507095002 68 218 5.0 10.0 0.00 0.00 0.00 87 1009.1
20260507094500 68 194 1.0 9.0 0.00 0.00 0.00 87 1008.9
20260507094002 68 192 4.0 9.0 0.00 0.00 0.00 87 1008.9
20260507093500 68 232 3.0 9.0 0.00 0.00 0.00 87 1008.8
20260507093002 68 244 3.0 11.0 0.00 0.00 0.00 87 1008.9
20260507092500 68 230 6.0 8.0 0.00 0.00 0.00 86 1008.8
20260507092000 68 256 3.0 9.0 0.00 0.00 0.00 86 1009.1
20260507091500 68 225 8.0 13.0 0.00 0.00 0.00 86 1009.1
20260507091002 68 211 5.0 10.0 0.00 0.00 0.00 86 1009.1
20260507090502 68 234 7.0 10.0 0.00 0.00 0.00 86 1009.1
20260507090003 68 302 4.0 9.0 0.00 0.00 0.00 85 1009.2
20260507085502 68 230 6.0 9.0 0.00 0.00 0.00 85 1009.3
20260507085002 68 223 4.0 8.0 0.00 0.00 0.00 85 1009.3
20260507084500 68 248 5.0 8.0 0.00 0.00 0.00 85 1009.4
20260507084002 68 213 3.0 8.0 0.00 0.00 0.00 85 1009.4
20260507083500 68 230 4.0 8.0 0.00 0.00 0.00 84 1009.5
20260507083002 69 219 3.0 8.0 0.00 0.00 0.00 84 1009.5
20260507082502 68 231 3.0 11.0 0.00 0.00 0.00 84 1009.7
20260507082000 68 225 2.0 11.0 0.00 0.00 0.00 84 1009.7
20260507081500 68 205 3.0 9.0 0.00 0.00 0.00 84 1009.7
20260507081002 68 218 2.0 6.0 0.00 0.00 0.00 84 1009.7
20260507080500 68 224 0.0 8.0 0.00 0.00 0.00 85 1009.6
20260507080002 68 211 4.0 8.0 0.00 0.00 0.00 84 1009.8
20260507075459 68 205 2.0 8.0 0.00 0.00 0.00 84 1009.9
20260507075000 68 229 0.0 10.0 0.00 0.00 0.00 84 1010.1
20260507074459 69 207 4.0 10.0 0.00 0.00 0.00 84 1010.1
20260507074002 68 196 4.0 8.0 0.00 0.00 0.00 84 1009.9
20260507073500 68 250 7.0 9.0 0.00 0.00 0.00 85 1009.9
20260507073002 68 198 4.0 10.0 0.00 0.00 0.00 85 1010.0
20260507072459 68 175 2.0 9.0 0.00 0.00 0.00 85 1009.9
20260507072001 68 194 3.0 9.0 0.00 0.00 0.00 86 1009.9
20260507071500 68 213 5.0 7.0 0.00 0.00 0.00 86 1009.7
20260507071002 68 221 3.0 6.0 0.00 0.00 0.00 86 1009.8
20260507070500 67 210 4.0 6.0 0.00 0.00 0.00 87 1009.8
20260507070003 67 205 3.0 7.0 0.00 0.00 0.00 87 1009.7
20260507065500 67 198 2.0 7.0 0.00 0.00 0.00 87 1009.4
20260507065002 67 204 1.0 4.0 0.00 0.00 0.00 86 1009.3
20260507064500 68 202 1.0 6.0 0.00 0.00 0.00 85 1009.3
20260507064002 68 200 3.0 6.0 0.00 0.00 0.00 84 1009.3
20260507063500 68 167 4.0 7.0 0.00 0.00 0.00 84 1009.1
20260507063002 68 207 1.0 8.0 0.00 0.00 0.00 84 1009.6
20260507062500 68 196 3.0 8.0 0.00 0.00 0.00 84 1009.9
20260507062002 68 211 3.0 7.0 0.00 0.00 0.00 84 1010.4
20260507061459 68 221 3.0 7.0 0.00 0.00 0.00 84 1010.5
20260507061002 68 202 4.0 8.0 0.00 0.00 0.00 83 1010.6
20260507060502 68 203 1.0 8.0 0.00 0.00 0.00 83 1010.6
20260507060003 68 246 2.0 9.0 0.00 0.00 0.00 82 1010.8
20260507055501 69 249 4.0 9.0 0.00 0.00 0.00 80 1010.9
20260507055002 69 225 9.0 9.0 0.00 0.00 0.00 80 1010.9
20260507054459 69 214 3.0 8.0 0.00 0.00 0.00 78 1011.0
20260507054002 70 220 4.0 8.0 0.00 0.00 0.00 77 1011.0
20260507053500 70 202 7.0 8.0 0.00 0.00 0.00 76 1010.8
20260507053003 70 199 4.0 10.0 0.00 0.00 0.00 75 1010.9
20260507052500 71 205 4.0 10.0 0.00 0.00 0.00 74 1010.9
20260507052000 71 211 6.0 10.0 0.00 0.00 0.00 73 1010.9
20260507051500 71 227 2.0 8.0 0.00 0.00 0.00 73 1010.8
20260507051002 71 229 6.0 10.0 0.00 0.00 0.00 72 1010.8
20260507050502 71 213 2.0 8.0 0.00 0.00 0.00 72 1010.7
20260507050002 71 215 5.0 10.0 0.00 0.00 0.00 71 1010.5
20260507045500 71 203 4.0 10.0 0.00 0.00 0.00 71 1010.5
20260507045000 71 214 4.0 10.0 0.00 0.00 0.00 71 1010.6
20260507044500 71 212 6.0 10.0 0.00 0.00 0.00 70 1010.6
20260507044002 72 209 4.0 10.0 0.00 0.00 0.00 70 1010.7
20260507043502 72 215 3.0 10.0 0.00 0.00 0.00 70 1010.7
20260507043002 72 228 4.0 10.0 0.00 0.00 0.00 70 1010.9
20260507042502 72 194 8.0 12.0 0.00 0.00 0.00 70 1010.9
20260507042003 71 224 5.0 12.0 0.00 0.00 0.00 70 1010.9
20260507041502 72 211 6.0 13.0 0.00 0.00 0.00 69 1010.9
20260507041003 72 209 3.0 10.0 0.00 0.00 0.00 69 1010.7
20260507040502 72 221 4.0 11.0 0.00 0.00 0.00 69 1010.6
20260507040008 72 214 5.0 11.0 0.00 0.00 0.00 70 1010.5
20260507035504 72 172 7.0 12.0 0.00 0.00 0.00 70 1010.2
20260507035004 72 172 8.0 12.0 0.00 0.00 0.00 70 1010.2
20260507034502 72 188 8.0 12.0 0.00 0.00 0.00 70 1010.3
20260507034004 72 220 7.0 11.0 0.00 0.00 0.00 70 1010.4
20260507033503 72 200 6.0 11.0 0.00 0.00 0.00 71 1010.4
20260507033003 72 206 7.0 10.0 0.00 0.00 0.00 71 1010.2
20260507032504 72 201 5.0 11.0 0.00 0.00 0.00 72 1010.1
20260507032003 72 213 7.0 11.0 0.00 0.00 0.00 73 1010.4
20260507031502 72 199 3.0 8.0 0.00 0.00 0.00 74 1010.6
20260507031005 72 211 4.0 8.0 0.00 0.00 0.00 75 1010.6
20260507030503 72 197 5.0 8.0 0.00 0.00 0.00 75 1010.6
20260507030005 72 191 4.0 6.0 0.00 0.00 0.00 74 1010.5
20260507025502 72 209 4.0 6.0 0.00 0.00 0.00 74 1010.4
20260507025003 73 229 4.0 7.0 0.00 0.00 0.00 74 1010.6
20260507024504 73 205 3.0 7.0 0.00 0.00 0.00 73 1010.7
20260507024003 73 223 6.0 8.0 0.00 0.00 0.00 73 1010.9
20260507023503 73 201 4.0 8.0 0.00 0.00 0.00 72 1011.0
20260507023002 74 216 5.0 9.0 0.00 0.00 0.00 72 1011.1
20260507022502 74 213 5.0 9.0 0.00 0.00 0.00 72 1011.2
20260507022002 74 211 5.0 10.0 0.00 0.00 0.00 72 1011.1
20260507021502 74 227 9.0 11.0 0.00 0.00 0.00 72 1010.9
20260507021002 74 208 4.0 8.0 0.00 0.00 0.00 72 1011.0
20260507020502 74 211 5.0 10.0 0.00 0.00 0.00 72 1011.0
20260507020005 74 214 3.0 10.0 0.00 0.00 0.00 72 1011.1
20260507015502 75 203 2.0 9.0 0.00 0.00 0.00 72 1011.2
20260507015003 75 205 3.0 12.0 0.00 0.00 0.00 72 1011.1
20260507014502 75 215 7.0 12.0 0.00 0.00 0.00 72 1011.0
20260507014003 75 196 5.0 10.0 0.00 0.00 0.00 72 1010.8
20260507013502 75 216 2.0 9.0 0.00 0.00 0.00 72 1010.7
20260507013003 75 187 9.0 10.0 0.00 0.00 0.00 72 1011.0
20260507012503 75 215 4.0 10.0 0.00 0.00 0.00 72 1010.9
20260507012003 75 221 2.0 10.0 0.00 0.00 0.00 72 1011.0
20260507011503 75 222 4.0 10.0 0.00 0.00 0.00 72 1010.9
20260507011005 75 205 4.0 12.0 0.00 0.00 0.00 72 1011.0
20260507010503 75 203 7.0 12.0 0.00 0.00 0.00 72 1011.0
20260507010005 75 232 5.0 12.0 0.00 0.00 0.00 72 1011.0
20260507005502 75 181 5.0 10.0 0.00 0.00 0.00 72 1011.0
20260507005003 75 250 2.0 10.0 0.00 0.00 0.00 72 1010.9
20260507004502 75 194 5.0 8.0 0.00 0.00 0.00 72 1010.8
20260507004002 75 164 1.0 10.0 0.00 0.00 0.00 72 1010.7
20260507003502 75 213 5.0 10.0 0.00 0.00 0.00 71 1010.6
20260507003002 75 196 4.0 7.0 0.00 0.00 0.00 71 1010.7
20260507002502 75 198 2.0 5.0 0.00 0.00 0.00 70 1010.6
20260507002002 75 172 3.0 6.0 0.00 0.00 0.00 70 1010.5
20260507001502 75 204 3.0 6.0 0.00 0.00 0.00 69 1010.4
20260507001002 76 190 4.0 7.0 0.00 0.00 0.00 69 1010.3
20260507000502 76 191 2.0 7.0 0.00 0.00 0.00 69 1010.3
20260507000003 75 186 2.0 4.0 0.00 0.00 0.00 70 1010.3
20260506235502 75 181 1.0 4.0 0.00 0.00 0.00 69 1010.3
20260506235002 75 192 2.0 5.0 0.00 0.00 0.00 70 1010.3
20260506234502 76 213 1.0 5.0 0.00 0.00 0.00 69 1010.1
20260506234002 76 214 2.0 4.0 0.00 0.00 0.00 69 1010.0
20260506233502 76 213 1.0 4.0 0.00 0.00 0.00 68 1010.0
20260506233002 76 216 2.0 6.0 0.00 0.00 0.00 68 1010.0
20260506232502 76 209 2.0 6.0 0.00 0.00 0.00 67 1010.0
20260506232002 76 206 3.0 6.0 0.00 0.00 0.00 67 1009.9
20260506231502 77 202 2.0 6.0 0.00 0.00 0.00 66 1009.9
20260506231002 77 201 3.0 6.0 0.00 0.00 0.00 65 1009.9
20260506230502 77 206 3.0 6.0 0.00 0.00 0.00 64 1009.9
20260506230004 77 223 3.0 7.0 0.00 0.00 0.00 65 1009.8
20260506225502 77 219 2.0 6.0 0.00 0.00 0.00 65 1009.8
20260506225002 77 234 3.0 8.0 0.00 0.00 0.00 65 1009.7
20260506224502 78 203 4.0 9.0 0.00 0.00 0.00 64 1009.8
20260506224002 78 236 4.0 9.0 0.00 0.00 0.00 64 1009.9
20260506223502 78 221 2.0 10.0 0.00 0.00 0.00 63 1009.8
20260506223002 78 234 3.0 12.0 0.00 0.00 0.00 63 1009.8
20260506222502 78 215 9.0 14.0 0.00 0.00 0.00 62 1009.8
20260506222002 78 194 8.0 14.0 0.00 0.00 0.00 62 1009.8
20260506221502 78 215 7.0 10.0 0.00 0.00 0.00 62 1009.8
20260506220502 78 219 3.0 11.0 0.00 0.00 0.00 61 1009.8
20260506220005 78 175 6.0 11.0 0.00 0.00 0.00 61 1009.8
20260506215502 79 222 7.0 11.0 0.00 0.00 0.00 61 1010.0
20260506215002 79 192 4.0 16.0 0.00 0.00 0.00 61 1009.7
20260506214502 79 239 11.0 15.0 0.00 0.00 0.00 60 1009.7
20260506214002 79 221 7.0 15.0 0.00 0.00 0.00 61 1009.6
20260506213502 79 219 12.0 17.0 0.00 0.00 0.00 61 1009.5
20260506213002 79 220 11.0 17.0 0.00 0.00 0.00 61 1009.4
20260506212502 79 182 7.0 13.0 0.00 0.00 0.00 61 1009.5
20260506212002 79 198 5.0 16.0 0.00 0.00 0.00 61 1009.6
20260506211502 79 244 8.0 16.0 0.00 0.00 0.00 60 1009.7
20260506211002 79 187 10.0 16.0 0.00 0.00 0.00 60 1009.9
20260506210502 79 197 4.0 16.0 0.00 0.00 0.00 60 1009.9
20260506210007 79 222 7.0 16.0 0.00 0.00 0.00 60 1010.0
20260506205502 78 222 3.0 16.0 0.00 0.00 0.00 61 1010.1
20260506205003 78 151 10.0 16.0 0.00 0.00 0.00 62 1010.1
20260506204502 78 189 3.0 19.0 0.00 0.00 0.00 61 1010.2
20260506204002 78 223 4.0 20.0 0.00 0.00 0.00 61 1010.3
20260506203502 78 227 14.0 20.0 0.00 0.00 0.00 61 1010.4
20260506203002 78 207 10.0 15.0 0.00 0.00 0.00 61 1010.6
20260506202502 79 237 7.0 21.0 0.00 0.00 0.00 62 1010.6
20260506202002 79 255 4.0 21.0 0.00 0.00 0.00 61 1010.7
20260506201502 79 192 12.0 23.0 0.00 0.00 0.00 61 1010.8
20260506201002 79 210 5.0 23.0 0.00 0.00 0.00 62 1010.9
20260506200502 79 197 9.0 17.0 0.00 0.00 0.00 62 1011.0
20260506200004 79 173 10.0 17.0 0.00 0.00 0.00 62 1011.0